Randolph, MN

9:17 PM CDT on July 25, 2016 (GMT -0500)
Stanton

Weather History for KSYN - October, 2012

Change the Weather History Date:

Tuesday, October 16, 2012

  Actual Average (KLVN) Record (KLVN)
Temperature  
Mean Temperature 56 °F -  
Max Temperature 67 °F 57 °F 85 °F (1953)
Min Temperature 43 °F 36 °F 19 °F (1952)
Degree Days  
Heating Degree Days 10    
Growing Degree Days 6 (Base 50)    
Moisture  
Dew Point 44 °F    
Average Humidity 65    
Maximum Humidity 89    
Minimum Humidity 48    
Precipitation  
Precipitation 0.00 in - - ()
Sea Level Pressure  
Sea Level Pressure 29.52 in    
Wind  
Wind Speed 9 mph (South)    
Max Wind Speed 15 mph    
Max Gust Speed 21 mph    
Visibility 10 miles    
Events Rain    
Averages and records for this station are not official NWS values.
T = Trace of Precipitation, MM = Missing Value Source: NWS Daily Summary

Daily Weather History Graph

Daily Weather History Graph

Search for Another Location

Airport or City:

Trip Planner

Search our weather history database for the weather conditions in past years. The results will help you decide how hot, cold, wet, or windy it might be!

Date:

Astronomy

Oct. 16, 2012 Rise Set
Actual Time 7:29 AM CDT 6:25 PM CDT
Civil Twilight 6:59 AM CDT 6:54 PM CDT
Nautical Twilight 6:25 AM CDT 7:28 PM CDT
Astronomical Twilight 5:52 AM CDT 8:01 PM CDT
Moon 8:57 AM CDT (10/16) 7:04 PM CDT (10/16)
Length of Visible Light 11h 54m
Length of Day
10h 56m
New Moon, 2% of the Moon is Illuminated
Oct 16
New Moon
Oct 21
First Quarter
Oct 29
Full
Nov 6
Last Quarter
Nov 13
New

Hourly Weather History & Observations

Time (CDT) Temp. Dew Point Humidity Pressure Visibility Wind Dir Wind Speed Gust Speed Precip Events Conditions
12:12 AM 56.3 °F 39.7 °F 54% 29.74 in 10.0 mi South 13.8 mph 19.6 mph N/A   Clear
12:32 AM 56.5 °F 39.9 °F 54% 29.74 in 10.0 mi South 11.5 mph 19.6 mph N/A   Clear
12:52 AM 56.5 °F 39.7 °F 54% 29.73 in 10.0 mi South 11.5 mph 17.3 mph N/A   Clear
1:12 AM 56.8 °F 39.7 °F 53% 29.72 in 10.0 mi South 13.8 mph 20.7 mph N/A   Clear
1:32 AM 56.8 °F 39.6 °F 52% 29.71 in 10.0 mi South 11.5 mph 17.3 mph N/A   Clear
1:52 AM 57.2 °F 39.6 °F 52% 29.70 in 10.0 mi South 15.0 mph 19.6 mph N/A   Clear
2:12 AM 56.8 °F 39.7 °F 53% 29.70 in 10.0 mi South 12.7 mph 19.6 mph N/A   Mostly Cloudy
2:32 AM 56.7 °F 40.1 °F 54% 29.70 in 10.0 mi South 10.4 mph 17.3 mph N/A   Overcast
2:52 AM 56.5 °F 40.1 °F 54% 29.69 in 10.0 mi South 10.4 mph - N/A   Overcast
3:12 AM 56.5 °F 40.3 °F 55% 29.67 in 10.0 mi South 10.4 mph - N/A   Overcast
3:32 AM 55.9 °F 40.6 °F 56% 29.66 in 10.0 mi South 11.5 mph - N/A   Scattered Clouds
3:52 AM 55.8 °F 41.0 °F 58% 29.66 in 10.0 mi South 9.2 mph - N/A   Clear
4:12 AM 55.6 °F 41.2 °F 58% 29.64 in 10.0 mi South 10.4 mph - N/A   Clear
4:32 AM 55.6 °F 41.4 °F 59% 29.64 in 10.0 mi South 9.2 mph - N/A   Scattered Clouds
4:52 AM 55.4 °F 41.5 °F 60% 29.63 in 10.0 mi South 10.4 mph - N/A   Scattered Clouds
5:32 AM 55.2 °F 41.7 °F 60% 29.61 in 10.0 mi South 13.8 mph 17.3 mph N/A   Clear
5:52 AM 55.4 °F 41.9 °F 60% 29.61 in 10.0 mi South 12.7 mph 16.1 mph N/A   Clear
6:32 AM 54.0 °F 41.5 °F 63% 29.61 in 10.0 mi South 6.9 mph - N/A   Clear
7:12 AM 53.6 °F 42.6 °F 66% 29.60 in 10.0 mi Calm Calm - N/A Rain Rain
7:52 AM 53.6 °F 43.2 °F 68% 29.58 in 10.0 mi SSE 9.2 mph - N/A   Overcast
8:12 AM 54.0 °F 43.3 °F 67% 29.60 in 10.0 mi West 10.4 mph - N/A   Overcast
8:32 AM 54.0 °F 43.7 °F 68% 29.59 in 10.0 mi South 8.1 mph - N/A   Overcast
8:52 AM 55.4 °F 44.6 °F 67% 29.59 in 10.0 mi South 8.1 mph - N/A   Overcast
9:12 AM 55.4 °F 44.1 °F 66% 29.59 in 10.0 mi South 9.2 mph - N/A   Overcast
9:32 AM 55.4 °F 43.7 °F 65% 29.59 in 10.0 mi SSW 5.8 mph - N/A   Overcast
9:52 AM 54.7 °F 44.6 °F 69% 29.59 in 10.0 mi SW 5.8 mph - N/A Rain Light Rain
10:12 AM 54.5 °F 45.5 °F 72% 29.55 in 10.0 mi SSE 9.2 mph - N/A Rain Light Rain
10:32 AM 55.8 °F 47.3 °F 73% 29.58 in 10.0 mi SW 9.2 mph - N/A   Overcast
10:52 AM 56.3 °F 46.4 °F 69% 29.55 in 10.0 mi SSE 8.1 mph 17.3 mph N/A   Overcast
11:12 AM 56.3 °F 46.4 °F 69% 29.52 in 10.0 mi SE 10.4 mph - N/A   Mostly Cloudy
11:32 AM 55.9 °F 46.6 °F 71% 29.52 in 10.0 mi SE 11.5 mph - N/A Rain Light Rain
11:52 AM 56.1 °F 45.9 °F 68% 29.52 in 10.0 mi SSE 9.2 mph - N/A   Overcast
12:12 PM 56.3 °F 46.9 °F 71% 29.54 in 10.0 mi West 9.2 mph - N/A   Mostly Cloudy
12:32 PM 56.5 °F 46.9 °F 70% 29.53 in 10.0 mi Calm Calm - N/A   Mostly Cloudy
12:52 PM 56.5 °F 47.1 °F 71% 29.50 in 10.0 mi SSE 9.2 mph - N/A   Overcast
1:12 PM 57.0 °F 47.7 °F 71% 29.50 in 10.0 mi South 4.6 mph 10.4 mph N/A   Overcast
1:32 PM 59.0 °F 48.0 °F 67% 29.48 in 10.0 mi SSW 5.8 mph - N/A   Scattered Clouds
1:52 PM 59.9 °F 48.2 °F 65% 29.47 in 10.0 mi South 5.8 mph - N/A   Clear
2:12 PM 62.4 °F 47.3 °F 58% 29.45 in 10.0 mi South 8.1 mph - N/A   Clear
2:32 PM 62.6 °F 47.3 °F 57% 29.44 in 10.0 mi SE 10.4 mph - N/A   Clear
2:52 PM 63.5 °F 47.8 °F 57% 29.44 in 10.0 mi ESE 5.8 mph - N/A   Clear
3:12 PM 63.9 °F 48.2 °F 57% 29.43 in 10.0 mi SE 8.1 mph - N/A   Clear
3:32 PM 64.4 °F 48.7 °F 57% 29.43 in 10.0 mi South 3.5 mph - N/A   Clear
3:52 PM 66.4 °F 47.1 °F 50% 29.43 in 10.0 mi SSE 10.4 mph - N/A   Clear
4:12 PM 66.9 °F 47.5 °F 50% 29.43 in 10.0 mi South 6.9 mph - N/A   Clear
4:32 PM 67.6 °F 47.5 °F 48% 29.43 in 10.0 mi South 6.9 mph - N/A   Clear
4:52 PM 67.1 °F 47.7 °F 50% 29.43 in 10.0 mi SSW 8.1 mph - N/A   Scattered Clouds
5:12 PM 67.1 °F 48.0 °F 50% 29.42 in 10.0 mi SSE 8.1 mph - N/A   Scattered Clouds
5:32 PM 66.9 °F 48.2 °F 51% 29.42 in 10.0 mi SSE 5.8 mph - N/A   Mostly Cloudy
5:52 PM 66.2 °F 48.6 °F 53% 29.41 in 10.0 mi South 6.9 mph - N/A   Mostly Cloudy
6:12 PM 64.8 °F 48.2 °F 55% 29.41 in 10.0 mi SE 5.8 mph - N/A   Scattered Clouds
6:32 PM 63.1 °F 48.2 °F 58% 29.40 in 10.0 mi SE 4.6 mph - N/A   Clear
6:52 PM 61.9 °F 48.2 °F 61% 29.39 in 10.0 mi SE 4.6 mph - N/A   Clear
7:12 PM 59.5 °F 47.5 °F 64% 29.41 in 10.0 mi Calm Calm - N/A   Clear
7:32 PM 53.6 °F 44.6 °F 72% 29.39 in 7.0 mi East 4.6 mph - N/A   Clear
7:52 PM 52.9 °F 45.0 °F 74% 29.40 in 10.0 mi Calm Calm - N/A   Clear
8:12 PM 50.2 °F 43.9 °F 79% 29.40 in 10.0 mi Calm Calm - N/A   Clear
8:32 PM 52.3 °F 45.3 °F 77% 29.40 in 10.0 mi Calm Calm - N/A   Clear
8:52 PM 50.9 °F 45.9 °F 83% 29.39 in 10.0 mi Calm Calm - N/A   Clear
9:12 PM 49.3 °F 43.7 °F 81% 29.39 in 10.0 mi Calm Calm - N/A   Clear
9:32 PM 49.1 °F 44.4 °F 84% 29.39 in 10.0 mi Calm Calm - N/A   Clear
9:52 PM 49.8 °F 44.6 °F 82% 29.39 in 10.0 mi Calm Calm - N/A   Clear
10:12 PM 45.7 °F 42.3 °F 88% 29.39 in 10.0 mi Calm Calm - N/A   Clear
10:32 PM 46.9 °F 43.3 °F 87% 29.38 in 10.0 mi Calm Calm - N/A   Clear
10:52 PM 46.0 °F 42.8 °F 88% 29.39 in 10.0 mi Calm Calm - N/A   Clear
11:12 PM 45.3 °F 41.5 °F 87% 29.38 in 10.0 mi Calm Calm - N/A   Clear
11:32 PM 44.1 °F 41.0 °F 89% 29.37 in 7.0 mi Calm Calm - N/A   Clear
11:52 PM 43.9 °F 40.5 °F 88% 29.36 in 10.0 mi Calm Calm - N/A   Clear